GFSSE_sfc_wetblb_336.txt.gz
Wetbulb
68.38 69.79 71.70 73.65 73.15 73.07 72.95 72.94 73.01 73.03 72.95 73.20 72.88 72.70 73.05 72.96 73.07 73.21 73.55 73.01 72.27 72.36 72.29 71.43 70.74 70.32 70.17 70.27 69.74 69.77 69.85 70.46 70.86 71.22 70.66 70.40 70.27 69.86 69.71 69.13 68.76 68.11 69.49
69.73 70.41 70.85 72.79 73.34 73.36 73.33 73.49 73.00 72.67 72.58 72.72 73.15 73.04 72.79 72.62 72.73 72.77 72.62 72.59 72.41 72.32 71.75 70.64 70.32 70.75 70.10 69.49 69.09 68.91 69.09 69.30 69.56 70.30 69.89 69.80 69.50 68.74 67.92 66.93 67.37 66.10 67.15
70.09 71.02 71.16 71.70 72.87 73.06 73.31 73.13 72.93 72.48 72.45 72.53 72.70 72.65 73.05 72.54 72.01 72.33 72.52 72.19 72.17 72.08 71.34 70.39 70.69 69.55 68.94 68.22 68.63 68.36 68.33 67.89 68.41 68.82 69.28 66.91 66.15 68.05 66.97 65.95 64.99 65.09 65.05
69.94 70.72 70.98 70.35 72.16 72.70 72.42 72.66 72.70 72.42 72.00 72.22 71.87 72.32 72.78 72.65 72.47 72.20 72.14 72.12 71.70 71.39 71.06 71.24 70.37 68.34 66.71 67.20 68.28 68.01 67.87 67.70 68.16 68.37 66.76 66.09 65.65 67.18 66.15 64.87 64.06 63.63 63.59
69.20 70.30 69.55 70.00 71.82 72.05 72.00 71.61 71.68 72.37 71.67 71.69 71.73 71.94 71.98 72.26 72.38 72.27 71.89 71.57 71.21 70.84 71.22 70.43 68.49 66.22 65.64 67.22 66.91 66.93 66.77 66.98 66.92 66.14 64.36 63.99 63.93 64.72 64.14 63.33 62.73 62.77 62.66
69.25 69.72 68.52 70.08 71.70 71.65 71.84 71.84 71.71 72.15 71.82 71.56 71.45 71.65 71.67 71.67 72.02 71.92 71.43 71.12 70.64 70.18 69.33 68.24 66.47 64.98 65.63 65.68 65.31 64.71 64.50 65.48 66.23 64.07 63.08 63.03 61.49 63.45 63.24 62.85 62.34 62.12 62.20
68.55 69.55 69.64 69.21 70.02 70.99 71.46 71.64 71.45 71.45 71.52 71.39 71.03 71.41 71.62 71.62 71.40 70.94 70.49 69.72 68.77 68.14 67.34 65.86 64.42 63.73 63.55 63.25 63.04 62.47 62.13 62.26 61.33 62.11 59.49 58.95 59.28 62.77 62.68 62.20 61.96 62.35 61.65
68.36 69.31 69.75 66.63 68.33 69.55 70.33 70.73 70.09 70.81 70.29 70.78 70.67 70.85 70.96 70.91 70.57 69.82 69.03 68.00 67.20 66.44 65.31 64.08 63.02 62.22 61.50 60.85 60.31 59.73 59.89 59.78 56.66 56.54 57.94 58.15 62.30 62.11 62.29 62.44 62.29 61.43 62.24
68.82 69.18 68.35 68.81 67.49 64.94 67.14 67.45 67.65 68.64 69.49 69.23 69.85 69.78 69.27 68.75 68.59 67.89 67.29 66.48 65.69 64.79 63.71 62.56 61.72 60.84 59.99 58.96 58.01 57.89 58.21 58.85 52.80 56.32 58.78 57.85 62.44 62.16 62.65 61.74 62.58 62.30 61.30
65.69 66.49 67.56 67.60 67.88 67.89 67.78 64.40 64.75 65.24 65.48 67.01 67.44 66.16 65.06 65.11 65.12 64.83 64.14 65.04 64.13 62.90 61.68 60.66 59.80 58.88 57.80 56.63 55.76 55.61 55.69 56.90 51.83 56.31 57.06 57.81 62.24 62.89 61.68 62.97 62.41 61.09 59.47
57.59 61.55 66.36 66.92 66.88 65.60 64.84 62.82 63.14 63.60 64.16 63.74 64.04 62.71 62.61 63.70 62.77 62.50 61.55 62.85 62.14 60.92 60.03 59.05 57.59 56.25 54.85 54.62 54.50 54.44 55.13 50.86 54.80 56.34 56.38 61.21 62.03 60.57 62.33 62.47 61.67 59.40 60.21
51.91 53.76 62.54 65.66 64.92 64.05 64.07 62.98 62.52 62.79 61.51 60.65 60.38 60.43 63.96 62.24 60.50 58.03 57.18 58.69 59.21 58.68 57.64 56.16 55.71 55.46 53.51 47.55 47.47 52.31 49.74 52.53 55.86 56.16 58.28 61.46 61.06 62.26 61.62 61.79 60.21 60.18 60.12
50.28 52.46 53.73 64.37 65.71 63.05 61.96 61.46 61.88 62.36 61.55 60.92 60.58 59.84 59.86 59.66 58.30 56.01 54.02 52.85 52.14 52.82 49.97 50.16 49.88 49.07 48.58 47.83 47.93 48.54 49.95 52.47 54.48 53.03 57.01 60.47 61.49 61.13 62.36 61.04 59.91 60.35 59.61
47.59 49.30 51.64 53.15 60.36 61.86 61.46 60.33 60.71 61.09 60.25 59.35 59.45 59.31 58.62 59.41 58.24 55.52 53.68 51.43 49.75 49.95 49.01 48.86 48.29 48.18 48.14 49.49 50.28 50.53 51.42 51.59 53.27 52.49 54.52 57.05 60.58 61.24 61.86 60.71 60.71 59.78 59.49
45.54 47.75 49.40 51.21 54.45 63.20 61.36 60.83 60.59 60.27 60.46 59.18 59.05 58.22 57.61 55.62 55.51 53.24 51.25 50.46 49.48 49.41 48.63 48.10 48.11 48.16 47.92 49.51 50.30 50.49 50.57 50.74 51.32 52.01 52.52 54.42 57.03 60.46 61.64 61.06 60.39 60.23 59.20
45.34 46.23 48.72 51.14 52.47 59.64 61.89 61.45 60.73 60.84 60.45 59.36 58.79 56.74 55.44 53.67 52.59 51.68 51.02 51.17 49.94 49.05 48.08 47.60 47.68 47.62 48.22 48.92 48.85 49.14 48.95 48.72 49.38 50.27 50.53 52.07 54.12 55.64 58.16 59.12 58.78 58.63 58.63
44.34 46.31 47.84 50.95 52.78 56.95 62.78 62.73 60.94 60.75 60.45 59.83 58.19 56.61 54.47 52.90 52.06 51.76 50.78 50.02 49.33 49.62 48.62 47.29 47.76 47.84 47.53 48.05 47.05 47.24 46.84 46.49 46.36 46.94 49.05 48.64 50.82 51.79 53.49 55.08 55.43 55.91 57.25
43.33 45.31 48.09 52.12 53.40 59.65 61.37 62.33 62.22 60.56 59.68 59.31 57.72 55.91 54.64 53.36 51.67 50.57 49.66 48.89 49.63 49.18 48.55 47.79 47.51 47.27 46.29 45.14 43.83 44.15 44.14 44.62 44.45 44.01 43.57 43.19 43.45 45.42 47.81 51.10 50.95 53.14 54.93
43.65 45.18 47.46 51.20 54.22 59.75 60.95 59.82 59.37 59.17 58.70 58.45 57.41 55.01 53.90 52.79 51.53 49.99 49.21 48.83 49.26 48.60 48.00 46.83 46.80 46.95 45.09 44.24 44.36 43.51 42.87 42.14 42.32 43.53 41.87 42.14 42.25 42.21 41.85 46.34 47.35 48.03 51.02
43.36 44.81 46.65 49.83 50.77 54.02 58.05 57.42 56.89 56.24 55.92 55.93 55.17 53.71 52.00 51.11 50.41 48.98 48.15 47.59 47.93 46.85 46.33 46.22 46.27 47.34 44.80 42.88 45.26 43.53 42.45 42.30 42.43 40.72 40.60 42.07 41.38 41.37 41.25 41.41 41.02 43.10 47.14
42.12 42.70 43.77 45.29 47.13 50.44 56.56 55.30 54.92 54.00 53.89 53.25 52.83 52.07 51.16 50.27 49.27 48.76 47.48 46.13 46.00 45.06 45.00 44.99 45.93 45.68 44.37 45.08 43.73 43.08 41.62 41.77 41.00 40.72 40.82 39.88 40.28 40.77 40.45 40.55 39.99 40.16 41.64
39.33 41.65 43.35 43.46 44.54 46.48 49.32 53.63 54.76 53.93 52.78 52.31 51.22 50.28 49.78 49.11 48.92 48.23 45.76 44.89 44.48 42.99 43.07 43.90 44.68 43.98 44.79 45.41 44.34 43.24 39.49 38.95 39.80 40.54 39.78 40.16 38.88 39.99 40.05 40.19 39.64 40.00 39.56
36.72 39.87 42.20 42.72 43.01 44.12 46.39 51.33 52.26 51.70 51.13 50.16 49.90 49.31 49.45 49.21 48.44 47.99 46.83 46.11 45.23 44.09 42.97 43.53 44.61 44.12 43.16 44.51 44.58 43.97 40.62 38.39 37.74 39.03 38.67 38.29 38.68 38.18 38.38 39.23 39.44 39.99 39.30
34.69 37.14 40.69 41.95 42.55 42.93 44.24 46.25 48.55 47.84 48.40 48.40 49.11 48.73 48.60 49.09 48.27 47.84 46.98 46.00 44.29 43.79 43.05 42.94 43.93 43.53 44.55 42.73 43.90 44.76 43.32 41.71 38.43 35.14 37.34 37.74 38.30 38.28 37.77 38.18 37.89 38.68 39.09
34.37 34.28 35.67 38.40 40.72 41.92 42.53 43.49 45.01 45.94 47.23 47.39 47.39 46.98 46.31 46.34 46.58 46.06 45.34 44.39 43.29 43.23 42.99 43.20 42.51 43.03 43.67 43.97 43.02 41.44 40.92 40.26 39.68 38.43 33.75 34.32 36.86 37.18 37.74 37.56 37.73 37.11 38.23
33.25 33.35 33.96 34.90 36.02 38.31 40.28 41.10 42.18 43.62 44.58 45.22 46.47 46.25 46.25 45.94 45.25 44.82 44.54 44.00 43.46 42.77 42.06 41.88 41.99 42.30 42.48 42.73 42.69 41.86 40.61 39.26 38.00 37.14 35.74 33.74 34.17 35.18 38.30 37.47 37.33 36.78 36.61

GFSSE_sfc_wetblb_339.txt.gz
Wetbulb
67.58 70.42 71.95 72.86 73.22 73.14 73.11 72.79 72.89 72.74 72.96 72.86 72.65 72.46 72.38 72.74 73.19 73.22 73.07 73.00 73.01 72.68 72.12 71.34 70.86 70.66 70.64 70.30 70.15 70.27 70.82 71.13 70.97 70.47 70.31 70.13 69.39 68.81 68.05 67.43 67.21 65.68 68.40
68.74 70.49 70.59 71.95 72.85 73.12 73.05 73.01 72.70 72.38 72.73 72.43 72.87 72.50 72.91 72.64 72.57 72.49 72.12 72.31 72.29 72.40 71.69 70.79 70.57 70.31 70.04 69.56 69.36 69.53 69.76 69.75 70.08 69.54 69.18 68.70 68.24 67.66 67.04 65.49 66.07 64.31 65.75
69.27 69.67 70.54 70.23 71.64 72.80 73.07 72.47 72.38 72.02 72.46 72.56 72.50 72.43 71.97 72.80 72.60 72.09 72.14 72.19 71.86 71.79 71.00 71.33 70.43 69.77 69.07 69.09 68.75 68.81 68.90 68.63 68.64 68.92 68.10 65.22 65.30 67.38 66.10 64.68 64.12 64.08 64.16
70.05 69.60 69.77 68.89 70.05 71.48 72.67 72.34 71.89 71.79 71.45 71.75 72.10 72.24 72.11 71.93 72.54 71.89 71.96 72.15 71.52 71.33 71.12 71.11 69.68 68.14 68.10 68.65 68.32 68.17 68.52 68.61 68.09 66.92 65.04 64.64 64.18 65.62 64.54 63.76 63.49 63.19 62.91
69.10 69.82 68.92 67.79 70.31 71.19 71.01 70.69 71.22 71.80 71.52 70.73 71.42 71.88 71.90 71.74 72.13 71.98 72.16 71.97 71.39 70.88 70.99 70.42 68.26 67.12 67.70 67.15 67.20 67.06 66.52 66.55 66.70 64.68 62.93 62.11 61.88 63.16 63.51 62.95 62.18 62.23 62.39
68.03 68.55 68.60 69.29 69.93 70.23 70.51 70.86 71.37 70.35 71.22 71.26 70.76 71.40 71.71 71.46 71.49 71.52 71.60 71.38 70.99 70.40 70.53 68.90 66.88 67.17 66.53 66.06 65.69 65.07 64.01 67.13 64.96 60.80 59.46 60.98 59.45 62.99 62.88 62.26 62.39 61.66 62.01
66.71 68.29 68.10 67.65 69.12 70.18 69.76 70.17 69.91 71.22 71.40 70.79 70.81 70.87 71.19 71.39 71.24 71.21 71.09 70.72 70.15 69.01 67.97 66.46 65.85 65.23 64.69 64.29 63.73 62.14 62.02 64.46 59.47 58.25 58.16 58.00 58.73 62.42 62.58 62.41 62.50 62.98 61.67
66.39 67.35 68.03 65.89 66.07 67.35 68.40 68.41 68.78 69.19 70.56 70.39 70.50 70.87 70.90 70.85 71.09 70.56 69.94 69.01 68.17 67.20 65.89 64.91 63.96 62.87 62.07 61.60 60.68 60.31 61.12 59.27 58.31 57.43 57.17 57.67 62.26 62.54 63.00 62.32 62.45 61.84 60.14
58.94 60.66 66.71 67.59 67.08 65.18 65.07 65.41 65.83 66.03 66.76 67.54 67.98 68.50 68.99 68.90 69.30 69.08 67.85 67.46 66.66 65.41 64.34 63.14 62.00 60.91 59.93 58.92 58.87 58.65 59.06 58.98 56.03 56.84 58.03 57.04 63.30 61.98 62.83 63.15 62.20 60.58 60.91
55.84 56.04 60.53 66.49 66.27 64.06 63.50 61.94 62.54 63.09 63.13 63.04 62.72 62.15 61.78 64.75 65.74 65.45 64.79 65.52 64.90 63.72 62.69 61.42 60.21 59.02 57.90 57.20 56.70 57.11 56.86 57.80 54.60 55.77 56.09 58.48 61.87 62.27 63.80 62.64 61.10 61.09 60.26
52.31 54.24 54.27 64.79 65.12 64.52 63.40 61.60 61.65 61.58 61.57 61.45 61.23 61.08 61.02 62.35 63.93 63.19 62.23 63.41 62.83 61.69 60.59 59.00 57.08 56.01 55.71 56.30 57.25 56.78 56.14 54.93 55.79 56.23 56.63 61.36 61.39 62.98 63.09 61.13 61.11 60.54 60.34
47.59 49.60 52.79 53.99 62.06 62.83 63.24 62.36 62.16 61.58 60.89 61.12 61.47 61.13 60.83 60.10 59.08 59.59 58.38 59.84 59.85 59.07 57.61 57.15 56.18 54.52 50.31 46.93 47.89 52.38 53.66 54.10 53.96 55.84 58.78 61.36 62.13 62.05 62.21 60.84 60.94 60.75 59.94
46.22 47.88 50.33 51.51 54.50 62.59 61.33 60.72 61.57 60.98 60.24 60.53 60.59 60.30 59.66 58.66 57.32 56.86 55.89 53.33 51.17 51.22 49.57 50.23 49.00 48.17 47.38 47.42 47.94 48.67 51.92 52.69 51.96 54.28 58.15 61.42 60.86 62.60 61.34 60.15 60.98 60.10 59.75
43.89 45.90 47.75 49.52 51.97 56.46 60.70 59.67 60.54 59.80 58.91 58.90 58.96 59.14 58.51 57.34 56.27 54.65 53.16 51.73 49.04 48.59 47.79 47.64 47.10 47.58 48.66 49.77 50.12 50.25 51.33 51.70 51.35 52.30 55.18 57.95 61.44 62.23 61.39 61.23 60.79 60.22 59.68
42.47 44.24 46.06 48.48 50.46 52.91 61.51 59.60 59.79 59.53 58.83 58.17 58.14 58.11 57.38 54.59 53.05 52.98 52.10 50.06 48.31 48.57 47.45 46.92 46.81 47.84 48.76 49.41 49.49 49.41 49.64 50.35 50.23 50.94 53.49 55.06 58.60 61.24 61.61 61.39 61.05 60.26 59.67
42.57 43.31 45.87 47.83 50.61 52.55 58.26 60.31 59.44 59.65 58.97 58.59 57.49 56.61 54.74 53.18 51.69 51.22 50.68 50.09 49.48 49.48 48.41 47.50 46.70 47.61 47.76 48.11 47.86 47.85 47.19 48.09 49.11 49.17 50.97 52.48 54.85 56.91 58.52 58.74 58.93 59.32 59.25
42.03 43.83 45.54 48.80 51.78 53.89 56.26 62.30 60.91 59.58 59.23 58.95 57.63 56.28 54.32 53.06 51.78 50.61 50.23 49.60 49.83 49.70 48.63 48.19 47.79 47.42 46.51 46.78 45.07 45.24 45.23 44.91 44.52 44.70 44.24 46.78 49.30 52.83 54.72 55.38 55.91 57.08 58.14
41.60 43.50 45.96 49.56 51.24 53.77 60.17 61.46 61.36 60.71 59.55 58.78 57.62 55.76 54.06 53.17 51.98 50.60 49.46 48.88 49.71 50.04 48.96 47.65 47.75 47.18 45.98 44.24 41.99 42.15 42.40 42.99 42.51 41.88 41.82 41.86 42.98 43.03 49.47 51.74 51.42 53.46 55.61
41.31 42.14 43.68 46.00 47.33 50.97 58.76 59.24 58.78 58.81 58.96 58.61 56.86 55.27 54.06 52.18 51.52 50.09 49.06 48.74 49.04 49.08 48.57 48.40 47.12 46.91 44.60 42.68 43.41 41.47 40.67 40.37 40.89 41.89 40.74 40.89 41.31 40.84 41.29 47.00 47.43 48.65 52.08
39.80 41.10 42.51 44.74 45.72 48.63 54.09 57.08 56.48 55.90 55.66 56.06 55.10 53.79 52.63 51.66 50.87 49.26 48.50 48.09 48.50 47.71 47.08 47.30 47.25 46.73 44.84 43.34 43.92 41.44 40.53 40.30 39.76 39.03 39.37 40.82 40.07 40.08 39.81 40.20 40.32 42.82 48.03
38.40 39.36 42.77 43.83 44.51 46.47 49.25 55.00 54.89 53.56 53.51 53.09 53.00 52.17 51.05 50.58 49.90 48.70 47.91 47.95 47.55 46.26 45.82 46.35 46.85 45.11 43.85 44.32 41.51 40.52 39.99 40.03 39.48 39.00 38.68 38.53 39.06 39.20 39.11 38.82 38.82 39.23 40.80
35.02 37.04 41.40 42.74 43.45 44.39 46.44 51.53 53.24 53.12 52.00 51.82 50.87 50.38 50.72 50.19 49.58 49.52 48.20 46.76 45.84 44.99 44.63 44.81 45.88 44.69 45.08 45.13 43.53 40.52 38.51 38.84 38.66 39.18 38.32 38.83 37.49 38.69 38.63 38.75 38.77 38.97 38.40
32.27 33.76 39.62 41.24 42.45 43.33 44.80 48.46 51.60 51.90 51.33 50.19 49.70 49.13 49.18 49.08 48.72 47.39 46.69 45.70 44.46 43.83 43.40 43.82 44.83 44.39 43.23 44.56 44.77 43.41 40.30 39.38 37.50 37.85 37.21 37.27 37.35 36.89 37.08 37.71 38.59 38.79 38.27
31.53 33.02 35.76 38.95 40.41 42.04 43.34 44.82 46.33 47.05 46.78 47.63 48.44 48.37 48.44 49.36 48.49 47.69 47.30 46.16 44.37 44.07 43.36 43.78 44.99 44.55 44.69 43.10 43.91 44.52 43.24 42.54 38.12 33.33 35.86 36.21 36.88 37.30 36.53 37.03 36.60 38.09 37.90
31.36 30.92 32.07 34.28 37.02 38.96 40.73 41.96 44.06 44.53 46.46 47.32 47.05 46.40 46.11 46.54 47.37 47.08 46.14 45.21 44.18 44.12 43.74 43.67 43.34 42.90 43.52 43.24 42.88 41.54 41.08 40.71 40.37 37.71 32.16 33.28 35.78 36.46 36.89 36.88 36.07 36.21 37.02
30.36 30.46 31.43 32.11 33.38 34.95 36.40 38.97 39.45 41.04 42.98 44.19 46.11 45.84 46.00 46.09 45.42 45.05 44.80 44.29 43.56 43.02 42.70 42.76 42.67 42.82 42.38 42.36 42.56 41.97 40.01 38.97 37.92 36.73 34.37 32.05 32.16 33.56 36.52 36.65 35.76 35.52 35.15

GFSSE_sfc_wetblb_342.txt.gz
Wetbulb
66.59 69.60 70.58 71.67 72.61 73.16 72.81 72.33 72.35 72.70 72.44 72.21 72.43 72.29 72.56 72.37 72.53 72.72 72.92 72.68 72.39 72.47 71.66 71.15 70.98 70.94 70.78 70.61 70.91 70.91 71.09 70.59 70.30 69.99 69.29 68.79 68.36 67.39 66.94 66.28 65.76 64.45 66.96
68.18 69.68 69.01 70.20 71.62 72.42 73.11 72.46 72.15 72.14 72.07 72.03 72.23 72.61 72.19 72.05 72.06 72.24 72.13 72.84 72.19 71.93 71.31 70.76 70.56 70.41 70.00 69.82 69.90 69.83 69.93 69.56 69.03 68.94 68.49 67.92 67.08 66.69 65.70 65.01 64.49 63.10 64.46
68.07 69.23 69.07 69.53 70.25 70.76 72.18 71.01 71.88 71.79 71.83 71.94 71.64 72.18 72.47 72.23 71.88 71.67 71.66 72.39 72.04 71.60 70.90 70.61 69.69 69.83 69.51 69.21 69.33 68.99 68.81 68.96 68.49 68.01 66.81 63.89 63.41 65.62 64.69 63.89 63.39 63.60 63.49
67.95 68.64 67.97 66.11 66.31 69.19 69.95 70.90 71.14 71.15 71.69 71.59 71.45 71.39 72.13 72.29 72.33 71.76 71.67 72.06 71.58 71.41 71.43 70.52 69.03 69.02 69.23 68.77 68.76 68.77 68.75 68.16 67.08 66.13 63.81 62.85 62.16 64.39 63.76 63.36 63.01 62.81 62.75
67.17 66.97 65.16 64.58 63.61 67.58 67.94 69.64 70.21 70.67 70.64 71.48 71.40 71.21 70.97 71.64 72.03 72.25 72.03 71.93 71.51 71.14 70.93 70.21 68.69 68.58 67.97 67.90 67.59 67.12 67.44 66.46 65.40 63.05 61.29 59.98 59.91 62.44 63.13 62.45 62.04 61.82 61.81
66.29 67.95 65.69 65.02 65.66 68.39 68.56 69.14 69.44 69.22 70.07 70.81 70.97 71.06 71.06 71.26 71.24 71.43 71.70 71.81 71.34 70.78 70.28 69.15 68.26 67.48 66.77 66.53 65.07 64.58 67.63 64.55 61.82 58.12 58.01 60.36 58.52 62.60 62.76 62.06 61.38 62.08 60.70
61.16 65.17 67.26 67.18 67.64 65.72 68.28 69.29 69.13 69.18 69.28 69.65 69.60 70.37 69.97 70.16 70.27 70.80 71.20 71.25 70.69 69.91 69.23 67.83 67.16 66.29 65.80 64.74 62.20 66.84 64.49 62.46 57.78 57.53 57.48 57.20 58.05 62.34 63.27 63.13 62.46 60.63 61.50
55.14 58.45 61.96 64.96 65.67 66.87 66.81 66.76 67.17 66.92 66.42 66.30 66.16 65.59 65.58 67.11 69.53 70.25 70.63 70.26 69.71 68.26 67.04 66.26 64.91 64.13 63.64 61.69 61.74 62.53 62.08 60.56 57.90 57.03 57.11 57.53 62.43 63.31 62.97 62.91 60.37 60.89 60.92
53.52 53.80 55.55 65.78 64.25 63.63 64.07 64.48 64.45 64.00 63.56 63.80 63.97 63.78 63.08 62.91 64.35 69.04 68.90 68.69 67.70 66.39 65.27 63.76 62.31 61.51 60.92 60.19 60.37 61.47 60.52 59.44 55.71 56.25 57.38 57.86 62.08 62.62 63.40 61.75 60.83 60.86 60.84
50.67 51.50 52.66 54.59 64.71 63.20 62.36 61.74 62.38 62.88 62.81 62.75 62.51 61.82 61.11 60.82 60.74 59.66 65.41 66.44 65.55 64.60 63.13 61.67 60.41 59.34 58.94 58.20 59.16 59.99 59.10 58.09 55.05 55.48 56.43 58.82 62.59 63.95 62.55 60.41 60.72 61.02 60.20
47.76 48.70 50.49 51.90 55.28 63.20 62.89 60.92 61.14 61.34 61.75 61.55 61.29 60.52 60.68 60.07 59.52 57.61 58.58 63.76 63.49 62.23 60.92 59.29 58.20 57.42 56.81 58.33 59.25 58.38 57.22 55.01 55.86 56.42 56.44 61.20 62.92 63.09 61.00 61.47 60.76 60.01 59.37
43.55 45.64 47.96 49.31 51.60 55.51 62.94 61.31 61.74 61.06 60.81 61.11 61.00 60.97 60.52 58.59 58.12 56.68 54.44 54.77 59.03 58.37 57.57 56.21 55.76 54.01 50.66 48.58 53.14 55.87 53.81 53.59 54.61 55.61 57.13 61.97 62.64 62.07 61.33 61.52 60.91 60.14 58.88
42.51 44.40 46.03 47.48 49.77 52.34 60.47 59.71 60.41 60.22 60.33 60.15 59.98 59.54 59.04 57.95 57.01 55.03 52.71 52.00 51.70 50.79 49.25 49.40 48.67 48.03 47.92 48.61 50.50 52.45 52.29 52.41 52.05 53.89 58.13 60.87 62.11 61.08 59.64 61.31 60.48 60.00 58.74
41.50 43.16 44.70 46.27 48.12 50.75 54.10 60.29 59.28 58.46 58.05 58.09 58.52 58.42 57.27 56.37 54.52 53.01 51.65 51.33 50.69 49.09 46.69 46.77 47.01 48.23 48.90 49.79 50.93 51.46 51.32 51.06 51.21 52.90 55.44 57.87 61.76 61.12 62.00 61.21 60.60 60.27 59.18
41.06 42.98 44.35 46.01 47.44 50.62 52.59 60.27 59.92 58.61 57.74 57.77 57.93 57.74 56.82 54.12 52.28 51.65 51.03 50.84 50.16 48.85 46.82 46.93 47.64 48.45 48.38 48.83 49.37 50.24 49.95 49.83 50.06 51.12 53.73 55.28 59.99 61.46 61.46 61.62 60.87 60.15 59.23
41.89 42.78 44.69 46.60 50.05 52.22 54.64 57.40 59.55 59.59 57.95 57.95 57.82 55.73 53.76 52.90 51.47 50.68 50.14 50.09 50.09 49.74 48.47 48.00 48.11 47.73 46.90 47.43 47.03 47.71 47.60 48.13 48.43 48.63 51.36 52.60 55.97 57.78 58.77 59.37 59.44 59.93 59.15
41.47 42.82 43.65 46.19 48.94 49.64 54.81 57.29 60.50 60.33 58.82 58.24 57.47 55.22 53.58 52.22 50.83 49.76 49.66 49.41 49.56 50.01 48.75 48.95 47.98 47.21 46.00 45.56 44.04 44.21 44.55 43.87 42.89 42.70 43.37 46.57 48.24 53.91 55.14 55.62 56.39 57.56 58.65
39.78 40.97 43.12 45.36 46.51 48.27 52.91 59.42 60.94 60.26 59.21 58.52 57.58 55.49 53.41 52.27 50.94 49.99 49.40 49.03 49.65 49.71 49.79 49.32 47.83 46.34 45.11 44.18 42.84 41.15 41.52 41.69 41.19 41.03 41.30 41.62 41.74 44.12 51.13 52.04 51.81 54.34 56.31
38.02 39.24 41.18 43.70 44.76 46.66 51.29 57.90 57.63 57.79 58.63 58.15 56.87 55.58 54.36 52.37 51.31 49.92 49.07 49.06 49.26 49.07 48.88 48.89 47.28 46.03 43.96 43.16 42.62 41.34 39.34 39.21 39.72 40.90 39.72 39.97 40.62 40.67 41.93 47.70 47.98 49.56 52.95
36.06 37.66 40.45 43.28 44.14 45.85 49.63 55.27 56.28 55.42 55.08 55.73 55.45 55.01 52.79 52.12 51.13 49.24 48.78 48.37 48.61 48.01 47.20 48.06 47.37 46.02 44.41 43.37 42.81 40.66 38.95 38.82 38.55 37.99 38.47 39.85 39.19 38.98 39.20 39.43 39.93 42.12 49.07
34.53 35.46 38.55 41.65 43.61 45.14 46.86 50.87 54.56 53.09 53.09 52.60 53.23 53.38 52.53 51.47 50.72 49.57 48.51 48.11 48.30 46.95 46.50 47.14 46.95 44.57 43.59 43.35 41.70 40.14 39.22 38.87 38.23 37.50 37.81 37.76 38.03 38.12 38.09 38.19 38.40 38.76 39.93
31.46 33.21 36.16 39.57 41.91 43.41 45.32 48.11 52.34 52.44 51.43 51.03 51.15 51.59 52.21 50.82 50.06 48.92 48.20 47.75 46.96 46.12 45.82 46.12 46.06 44.75 45.19 44.52 42.80 41.13 37.34 37.56 38.76 38.40 37.45 37.88 36.53 37.58 37.53 38.04 38.19 38.10 37.72
29.95 30.88 33.85 36.46 39.59 41.43 43.08 46.94 49.29 51.24 50.93 49.70 49.74 49.37 50.22 50.59 50.01 48.62 48.33 47.45 46.30 45.62 44.69 44.80 45.35 45.12 43.32 44.88 45.31 43.35 39.86 37.65 37.40 39.19 37.41 36.49 36.22 36.01 35.86 36.88 37.94 37.90 37.70
29.10 30.51 32.37 34.09 36.98 38.79 41.11 42.99 44.99 45.76 45.65 47.11 47.56 47.83 48.48 49.20 48.77 47.83 47.27 46.70 44.92 44.41 43.90 44.65 45.34 45.04 44.92 43.33 44.63 44.98 43.23 42.12 38.63 35.25 34.98 35.15 35.74 36.25 35.08 35.72 36.25 37.11 37.25
29.16 28.91 29.99 31.82 33.72 35.62 37.67 39.54 40.83 41.73 44.02 46.35 46.96 46.38 46.06 46.46 47.67 47.56 46.86 45.57 44.09 43.98 43.90 44.50 44.06 43.82 43.74 43.36 42.98 41.93 41.24 40.71 41.00 38.65 34.05 32.28 34.19 34.66 35.31 35.39 35.10 35.17 36.34
28.80 29.03 29.95 30.32 31.45 32.67 33.44 35.70 37.07 38.39 39.54 40.49 42.11 44.66 45.95 46.02 45.34 45.29 45.93 44.91 44.20 43.77 43.46 43.26 43.16 43.27 43.37 42.48 42.76 41.57 40.16 38.76 37.82 37.45 35.55 32.19 31.58 32.89 35.05 34.89 34.47 34.08 34.49

GFSSE_sfc_wetblb_345.txt.gz
Wetbulb
65.36 66.31 65.94 65.86 69.11 71.42 70.89 71.03 71.83 71.99 71.76 71.32 71.13 71.31 71.88 72.12 72.45 72.54 72.62 72.61 72.82 71.96 70.76 70.74 70.55 70.52 70.81 71.27 71.13 70.88 70.82 70.27 69.63 68.99 68.55 68.15 67.20 66.68 66.20 65.34 64.76 63.22 65.86
66.55 65.13 64.20 65.42 67.78 66.51 68.09 70.70 70.43 70.71 72.02 71.95 71.36 71.09 71.45 71.42 71.82 71.88 72.32 72.59 72.20 71.81 71.29 70.34 70.13 70.24 70.17 70.38 70.19 70.04 69.99 69.12 68.64 68.15 67.61 66.71 66.15 65.58 65.25 64.31 63.89 62.26 63.87
66.57 67.74 66.86 67.23 65.66 65.57 66.05 67.64 69.92 70.51 70.32 71.25 71.42 71.37 71.34 71.33 71.32 71.48 71.68 72.15 71.82 71.43 71.06 70.32 70.09 69.76 69.72 69.80 69.53 69.93 69.21 68.18 67.41 66.56 65.55 61.87 62.01 64.94 64.17 63.34 63.32 63.42 63.34
66.65 66.39 65.62 65.67 65.77 64.88 65.78 67.80 68.45 69.65 70.18 69.21 70.51 71.21 71.18 71.41 71.17 70.90 71.15 71.77 71.51 71.04 71.02 70.04 69.40 69.61 69.28 69.36 68.94 68.97 68.92 67.51 66.34 65.33 61.59 60.63 61.41 63.97 63.42 63.12 62.78 62.51 62.46
62.05 65.27 64.38 65.17 65.38 65.69 66.42 65.52 68.39 68.67 68.83 68.82 70.03 69.63 70.50 70.94 71.45 70.56 71.17 71.38 71.49 71.40 70.89 69.82 69.32 69.28 68.81 68.90 68.70 68.96 67.40 65.63 64.53 61.68 59.02 58.82 59.18 62.26 63.12 62.11 61.55 61.51 61.32
56.46 59.64 65.03 67.05 67.14 64.90 64.31 63.96 65.10 67.80 68.55 68.47 68.42 68.68 69.10 69.51 69.87 70.51 70.68 71.25 70.92 70.63 70.24 69.65 69.25 67.93 67.66 67.28 66.90 67.81 65.84 63.53 61.02 57.75 57.93 60.12 58.08 62.73 62.25 62.67 60.86 61.15 61.73
52.42 54.22 60.47 65.76 67.25 65.99 64.32 64.79 66.09 67.24 66.96 66.29 65.88 65.52 66.58 67.26 67.04 67.82 69.27 69.99 70.78 70.04 69.52 69.19 67.98 66.71 66.20 63.68 66.69 66.78 63.61 61.61 57.56 56.92 56.68 56.66 57.74 62.85 63.37 61.31 61.22 61.23 61.06
50.45 52.24 54.23 58.06 64.05 64.85 66.39 66.96 66.71 66.50 66.13 65.58 65.11 64.56 64.41 64.24 64.34 64.59 64.82 68.97 69.71 69.16 68.62 67.51 66.45 65.80 63.27 64.86 65.90 63.57 61.76 60.44 57.70 56.59 56.36 57.46 62.86 62.59 63.02 60.94 61.50 61.09 61.45
48.95 49.73 50.73 53.83 60.55 62.51 62.95 64.06 65.07 65.19 65.10 65.07 64.38 63.01 62.52 62.46 62.42 62.24 62.02 63.24 69.17 68.41 66.99 65.14 63.95 63.25 61.69 63.12 63.43 61.75 60.65 59.25 55.50 56.03 57.99 57.83 62.68 63.90 62.15 61.17 61.59 61.33 60.53
46.39 47.32 48.09 50.02 53.60 58.06 62.70 61.19 61.92 63.00 63.60 63.40 62.62 62.24 61.46 61.12 60.38 60.10 59.33 60.59 67.70 65.96 64.15 62.68 61.14 60.99 60.23 62.43 61.43 60.33 59.43 58.21 54.51 55.82 56.66 57.10 63.80 63.07 61.64 61.13 61.37 60.83 58.93
44.48 44.90 46.22 47.77 49.68 52.95 58.28 61.71 61.05 61.32 61.45 61.59 61.30 60.29 59.76 60.11 59.03 58.84 58.87 58.96 57.72 62.36 62.02 60.66 59.54 58.95 60.48 60.79 59.51 58.52 57.09 55.10 55.55 55.63 55.03 61.75 62.95 61.93 61.50 60.71 60.74 60.09 58.41
41.17 43.11 45.00 45.95 47.69 50.51 54.25 60.89 60.44 60.82 60.69 60.30 60.59 60.16 59.86 58.87 58.24 56.73 56.56 57.10 56.10 54.53 56.27 57.52 56.42 55.18 53.73 53.61 55.41 55.76 54.21 54.55 54.93 55.83 56.10 62.63 62.19 61.16 61.72 61.35 60.64 59.06 58.32
40.42 43.17 44.70 45.51 47.04 49.05 51.88 55.63 59.70 58.75 59.85 59.73 59.37 59.14 58.34 57.56 55.70 53.90 52.75 52.63 51.95 51.01 49.86 49.17 48.33 48.30 50.18 52.23 52.66 52.52 52.90 53.30 53.51 54.61 57.47 61.43 61.25 60.18 61.87 60.95 60.27 58.76 58.94
40.75 42.61 44.02 45.13 46.68 49.99 52.12 54.19 60.21 57.73 57.37 56.87 59.03 58.30 57.31 55.35 53.59 51.76 50.69 50.75 50.55 50.10 48.42 47.95 48.26 49.08 49.95 51.51 51.68 51.48 51.33 51.26 51.79 53.03 54.95 58.58 61.25 60.66 61.53 61.13 60.31 59.60 58.98
40.15 41.85 43.13 44.73 46.00 49.08 50.69 54.87 59.48 57.90 57.38 56.55 58.32 57.76 55.95 53.74 51.95 51.44 50.59 50.38 49.88 49.78 48.48 48.24 49.08 48.93 49.22 49.94 50.47 50.54 50.09 50.27 50.19 51.21 53.41 55.78 60.40 61.21 61.22 60.93 60.65 59.65 58.64
40.04 40.65 42.61 44.27 46.06 47.59 50.74 54.89 57.67 59.87 59.15 58.16 57.95 55.96 53.67 53.04 51.44 50.68 49.82 49.55 49.45 49.63 49.47 49.53 48.50 47.65 47.00 48.20 47.50 47.72 47.40 47.53 47.02 47.45 50.33 51.41 55.66 58.78 59.61 60.02 60.28 60.00 58.88
38.51 39.80 41.29 44.10 45.75 46.32 49.89 53.80 58.32 59.72 58.91 58.15 57.21 55.20 52.98 51.40 50.32 49.05 49.72 49.30 49.51 49.68 49.58 49.15 47.95 46.99 46.08 45.91 44.70 44.37 44.10 43.19 42.90 42.67 44.93 46.03 47.53 53.44 55.90 56.70 57.07 58.39 58.79
36.18 37.43 40.27 43.31 44.39 45.53 48.62 52.42 58.22 59.21 59.03 58.14 57.05 54.98 53.71 51.75 49.99 49.03 48.81 48.18 49.33 49.55 49.76 48.91 47.51 45.69 44.55 44.12 42.70 41.28 40.65 41.42 40.88 40.61 40.86 42.45 44.08 45.39 50.61 52.68 53.11 54.56 57.16
34.20 35.35 37.65 41.17 42.91 44.81 47.45 52.03 56.78 56.34 56.44 57.82 56.85 55.27 54.41 51.45 50.48 49.53 48.69 48.53 49.22 49.40 49.38 49.04 47.08 45.73 43.43 42.53 41.91 41.12 40.59 39.14 38.90 40.08 38.98 39.45 40.37 40.66 41.48 48.37 48.58 50.02 53.24
32.87 34.19 36.16 39.25 41.30 44.20 46.52 50.53 55.66 54.92 54.33 54.31 54.79 55.21 54.48 53.42 51.34 49.42 48.65 48.11 48.20 48.16 47.97 48.24 46.53 45.67 43.78 42.60 41.89 40.47 40.09 39.62 37.70 37.30 37.62 39.08 38.32 38.56 38.81 39.56 39.64 41.61 49.84
32.21 32.83 34.26 35.91 38.67 42.78 44.24 47.12 50.20 52.34 51.63 51.66 51.77 52.68 53.20 53.67 51.99 50.04 49.16 48.45 48.24 47.30 47.00 47.26 45.72 43.95 42.81 42.77 41.46 40.60 40.31 39.62 38.43 36.92 37.08 36.95 37.28 37.42 37.73 38.07 38.25 38.19 39.53
29.12 30.82 32.93 34.32 36.42 40.23 42.26 45.75 49.09 51.58 51.26 50.82 50.86 50.85 51.14 51.38 51.35 49.76 49.07 48.17 47.68 46.69 46.55 46.74 45.21 44.40 44.17 43.92 41.80 40.64 37.33 38.33 38.95 37.65 36.72 37.37 35.93 36.69 37.06 37.77 37.61 37.63 37.47
28.10 28.52 31.48 32.87 34.39 37.79 40.09 43.53 46.32 48.33 49.45 48.09 48.14 48.60 49.30 49.68 49.60 49.33 48.76 47.75 46.90 46.65 45.91 46.00 45.63 45.07 43.03 44.45 45.39 43.61 39.03 37.77 36.49 37.76 35.98 35.94 35.74 35.15 35.01 36.74 37.17 37.43 37.14
27.39 28.34 29.86 31.65 32.79 35.02 37.82 39.71 40.93 42.20 42.35 44.42 46.92 47.10 47.10 48.33 48.29 47.86 47.52 46.69 45.63 45.11 44.56 45.21 46.32 45.74 45.13 43.25 44.64 45.78 44.02 42.50 38.57 34.92 35.76 35.21 35.44 35.52 34.19 35.11 35.56 36.43 36.52
27.72 27.56 28.41 29.70 31.40 32.01 32.80 35.54 37.84 38.31 40.90 42.22 42.41 43.60 45.96 46.26 46.31 47.09 46.76 45.66 44.58 44.21 44.34 45.09 44.69 44.78 44.84 44.75 43.86 42.49 42.58 41.68 40.95 38.19 34.85 32.94 34.00 34.09 34.73 34.43 35.08 34.63 35.60
27.75 27.84 28.65 28.87 30.09 30.86 30.80 30.93 31.97 34.24 36.05 36.94 38.93 39.43 40.15 41.63 43.31 44.56 45.06 44.76 44.33 43.82 43.41 43.67 44.07 44.05 43.87 43.53 43.28 42.60 40.79 39.31 38.77 38.21 35.94 34.38 32.28 32.65 34.95 34.54 34.33 34.28 34.00